Weather Roundup
Issued by NWS Springfield, MO

Home | Current Version | Previous Version | Text Only | Print | Product List | Glossary On
Versions: 1 2 3 4 5 6 7 8 9 10 11 12 13 14 15 16 17 18 19 20 21 22 23 24 25 26 27 28 29 30 31 32 33 34 35 36 37 38 39 40 41 42 43 44 45 46 47 48 49 50
000
NZUS99 KSGF 281159
HRRSGF

HOURLY WEATHER
NATIONAL WEATHER SERVICE SPRINGFIELD MO
600 AM CST WED JAN 28 2015

......SGF CWA......

CITY           SKY/WX    TMP DP  RH WIND       PRES   REMARKS
SPRINGFIELD    CLEAR     39  33  79 S15G30    30.06S WCI  31
6HR MIN TEMP:  39; 6HR MAX TEMP:  47;

JOPLIN         CLEAR     49  31  49 S12       30.02S
6HR MIN TEMP:  48; 6HR MAX TEMP:  50;

WEST PLAINS    CLEAR     32  28  85 SE7       30.19S WCI  26
6HR MIN TEMP:  32; 6HR MAX TEMP:  39;

ROLLA          CLEAR     32  27  81 SE16      30.11F WCI  21
6HR MIN TEMP:  31; 6HR MAX TEMP:  34;

OSAGE BEACH    CLEAR     37  30  75 SE14      30.09S WCI  29

......SURROUNDING SGF CWA......

CITY           SKY/WX    TMP DP  RH WIND       PRES   REMARKS
CHANUTE        CLEAR     47  36  65 S14       29.98S
PARSONS        CLEAR     45  35  68 S3        30.00S
COFFEYVILLE    CLEAR     43  35  73 S8        29.99S
EMPORIA        CLEAR     40  34  79 S18       29.91S WCI  31
SILOAM SPRINGS CLEAR     46  30  53 S7        30.08S
HARRISON AR    CLEAR     38  33  82 SE14      30.12F WCI  30
NEAR YELLVILLE CLEAR     36  28  75 E5        30.18R WCI  32

......KANSAS AND MISSOURI......

CITY           SKY/WX    TMP DP  RH WIND       PRES   REMARKS
KANSAS CTY INT PTCLDY    40  30  67 SE12      29.94F WCI  33
DOWNTOWN KC    PTCLDY    43  29  57 CALM      29.96F
COLUMBIA       CLEAR     31  28  89 SE14      30.09F WCI  21
SEDALIA        CLEAR     39  31  72 SE15      30.03F WCI  31
ST JOSEPH      PTCLDY    36  29  75 SE8       29.95S WCI  30
ST LOUIS       PTCLDY    31  26  82 SE12      30.23S WCI  22
SPIRIT OF STL  CLEAR     29  26  89 SE5       30.21F WCI  24
KIRKSVILLE     PTCLDY    28  27  96 E10       30.09F FOG     WCI  19
WICHITA        CLEAR     39  32  76 S8        29.91F WCI  33
TOPEKA         CLEAR     35  29  78 E5        29.93S WCI  31
OLATHE         CLEAR     39  30  70 S10       29.95S WCI  32

......TENNESSEE......

CITY           SKY/WX    TMP DP  RH WIND       PRES   REMARKS
MEMPHIS        CLEAR     36  28  73 E7        30.26R WCI  30
NASHVILLE      CLOUDY    33  25  72 E9        30.31R WCI  25

......ARKANSAS.......

CITY           SKY/WX    TMP DP  RH WIND       PRES   REMARKS
FAYETTEVILLE   CLEAR     49  35  58 SW10      30.09R
FT SMITH       CLEAR     42  35  76 E9        30.13S
LITTLE ROCK    CLEAR     37  34  89 NE5       30.23R WCI  33

......OKLAHOMA.......

CITY           SKY/WX    TMP DP  RH WIND       PRES   REMARKS
TULSA          CLEAR     50  37  61 S10       30.01R
PONCA CITY     CLEAR     50  37  61 S6        29.95F
MCALESTER      CLEAR     55  37  50 S6        30.08R
OKLAHOMA CITY  CLEAR     49  36  61 S9        30.00S

......IOWA............

CITY           SKY/WX    TMP DP  RH WIND       PRES   REMARKS
DES MOINES     CLOUDY    31  27  85 SE12G21   30.03F FOG     WCI  22
QUAD CITIES    PTCLDY    28  22  78 SE7       30.20S WCI  21

......ILLINOIS........

CITY           SKY/WX    TMP DP  RH WIND       PRES   REMARKS
QUINCY         CLEAR     27  24  89 SE12      30.17S FOG     WCI  17
CHICAGO        PTCLDY    20  16  84 S5        30.27R WCI  13



USA.gov is the U.S. government's official web portal to all federal, state and local government web resources and services.